| time (UTC) | temp F | wind direction | speed MPH | gust MPH | rain 1hr in | rain 24hr in | rain mn in | humidity % | barometer mb |
| 20260506071523 | 54 | 246 | 1.0 | 3.0 | 0.00 | 0.00 | 0.00 | 83 | 1017.1 |
| 20260506071009 | 54 | 252 | 1.0 | 3.0 | 0.00 | 0.00 | 0.00 | 83 | 1017.1 |
| 20260506070509 | 54 | 239 | 2.0 | 3.0 | 0.00 | 0.00 | 0.00 | 83 | 1017.0 |
| 20260506062508 | 55 | 224 | 3.0 | 6.0 | 0.00 | 0.00 | 0.00 | 81 | 1016.5 |
| 20260506062010 | 55 | 249 | 3.0 | 7.0 | 0.00 | 0.00 | 0.00 | 81 | 1016.6 |
| 20260506061542 | 55 | 223 | 3.0 | 7.0 | 0.00 | 0.00 | 0.00 | 80 | 1016.6 |
| 20260506061010 | 55 | 221 | 1.0 | 5.0 | 0.00 | 0.00 | 0.00 | 80 | 1016.5 |
| 20260506060510 | 55 | 232 | 2.0 | 5.0 | 0.00 | 0.00 | 0.00 | 80 | 1016.4 |
| 20260506051009 | 57 | 223 | 3.0 | 8.0 | 0.00 | 0.00 | 0.00 | 78 | 1016.0 |
| 20260506050520 | 57 | 223 | 3.0 | 8.0 | 0.00 | 0.00 | 0.00 | 77 | 1015.9 |
| 20260506045009 | 58 | 234 | 4.0 | 8.0 | 0.00 | 0.00 | 0.00 | 76 | 1015.9 |
| 20260506044530 | 58 | 242 | 4.0 | 9.0 | 0.00 | 0.00 | 0.00 | 76 | 1015.9 |
| 20260506044010 | 59 | 250 | 5.0 | 9.0 | 0.00 | 0.00 | 0.00 | 76 | 1015.9 |
| 20260506043510 | 58 | 244 | 5.0 | 7.0 | 0.00 | 0.00 | 0.00 | 76 | 1015.8 |
| 20260506043024 | 59 | 229 | 2.0 | 7.0 | 0.00 | 0.00 | 0.00 | 76 | 1015.8 |
| 20260506042507 | 59 | 248 | 4.0 | 8.0 | 0.00 | 0.00 | 0.00 | 76 | 1015.8 |
| 20260506042008 | 59 | 210 | 4.0 | 8.0 | 0.00 | 0.00 | 0.00 | 76 | 1015.8 |
| 20260506041524 | 59 | 254 | 1.0 | 3.0 | 0.00 | 0.00 | 0.00 | 77 | 1015.7 |
| 20260506041007 | 59 | 281 | 2.0 | 4.0 | 0.00 | 0.00 | 0.00 | 76 | 1015.7 |
| 20260506040512 | 59 | 211 | 2.0 | 4.0 | 0.00 | 0.00 | 0.00 | 76 | 1015.6 |
| 20260506040022 | 60 | 235 | 2.0 | 4.0 | 0.00 | 0.00 | 0.00 | 76 | 1015.6 |
| 20260506035510 | 60 | 254 | 2.0 | 3.0 | 0.00 | 0.00 | 0.00 | 75 | 1015.6 |
| 20260506035016 | 60 | 251 | 2.0 | 3.0 | 0.00 | 0.00 | 0.00 | 75 | 1015.5 |
| 20260506034528 | 60 | 238 | 1.0 | 4.0 | 0.00 | 0.00 | 0.00 | 74 | 1015.5 |
| 20260506034007 | 61 | 243 | 2.0 | 4.0 | 0.00 | 0.00 | 0.00 | 74 | 1015.4 |
| 20260506033508 | 61 | 239 | 3.0 | 6.0 | 0.00 | 0.00 | 0.00 | 73 | 1015.4 |
| 20260506033027 | 61 | 248 | 3.0 | 6.0 | 0.00 | 0.00 | 0.00 | 73 | 1015.3 |
| 20260506032511 | 61 | 226 | 3.0 | 5.0 | 0.00 | 0.00 | 0.00 | 73 | 1015.1 |
| 20260506032010 | 62 | 252 | 2.0 | 5.0 | 0.00 | 0.00 | 0.00 | 72 | 1015.1 |
| 20260506031519 | 62 | 265 | 3.0 | 5.0 | 0.00 | 0.00 | 0.00 | 72 | 1015.1 |
| 20260506031011 | 62 | 242 | 2.0 | 5.0 | 0.00 | 0.00 | 0.00 | 72 | 1015.1 |
| 20260506030510 | 62 | 248 | 2.0 | 4.0 | 0.00 | 0.00 | 0.00 | 71 | 1015.1 |
| 20260506030027 | 62 | 268 | 1.0 | 4.0 | 0.00 | 0.00 | 0.00 | 71 | 1015.0 |
| 20260506025509 | 62 | 248 | 2.0 | 5.0 | 0.00 | 0.00 | 0.00 | 71 | 1015.0 |
| 20260506025011 | 63 | 241 | 2.0 | 5.0 | 0.00 | 0.00 | 0.00 | 70 | 1015.0 |
| 20260506024538 | 63 | 275 | 1.0 | 4.0 | 0.00 | 0.00 | 0.00 | 71 | 1015.0 |
| 20260506024014 | 63 | 223 | 2.0 | 4.0 | 0.00 | 0.00 | 0.00 | 69 | 1015.0 |
| 20260506023513 | 63 | 220 | 2.0 | 4.0 | 0.00 | 0.00 | 0.00 | 69 | 1015.0 |
| 20260506023026 | 63 | 262 | 1.0 | 4.0 | 0.00 | 0.00 | 0.00 | 69 | 1015.0 |
| 20260506022515 | 63 | 220 | 2.0 | 4.0 | 0.00 | 0.00 | 0.00 | 70 | 1015.1 |
| 20260506022008 | 63 | 243 | 2.0 | 3.0 | 0.00 | 0.00 | 0.00 | 69 | 1015.1 |
| 20260506021531 | 63 | 271 | 2.0 | 6.0 | 0.00 | 0.00 | 0.00 | 69 | 1015.2 |
| 20260506021012 | 63 | 271 | 3.0 | 6.0 | 0.00 | 0.00 | 0.00 | 69 | 1015.1 |
| 20260506020509 | 63 | 267 | 2.0 | 3.0 | 0.00 | 0.00 | 0.00 | 69 | 1015.2 |
| 20260506020021 | 64 | 286 | 2.0 | 6.0 | 0.00 | 0.00 | 0.00 | 68 | 1015.2 |
| 20260506015509 | 63 | 275 | 1.0 | 6.0 | 0.00 | 0.00 | 0.00 | 69 | 1015.1 |
| 20260506015009 | 64 | 257 | 2.0 | 6.0 | 0.00 | 0.00 | 0.00 | 70 | 1015.2 |
| 20260506014530 | 63 | 257 | 2.0 | 6.0 | 0.00 | 0.00 | 0.00 | 69 | 1015.1 |
| 20260506014014 | 63 | 260 | 2.0 | 6.0 | 0.00 | 0.00 | 0.00 | 70 | 1015.1 |
| 20260506013512 | 63 | 267 | 2.0 | 6.0 | 0.00 | 0.00 | 0.00 | 69 | 1015.2 |
| 20260506013025 | 63 | 257 | 2.0 | 6.0 | 0.00 | 0.00 | 0.00 | 69 | 1015.1 |
| 20260506012507 | 63 | 284 | 2.0 | 6.0 | 0.00 | 0.00 | 0.00 | 69 | 1015.1 |
| 20260506012007 | 63 | 269 | 3.0 | 6.0 | 0.00 | 0.00 | 0.00 | 69 | 1015.2 |
| 20260506011515 | 63 | 288 | 3.0 | 6.0 | 0.00 | 0.00 | 0.00 | 69 | 1015.2 |
| 20260506011010 | 63 | 287 | 2.0 | 6.0 | 0.00 | 0.00 | 0.00 | 69 | 1015.2 |
| 20260506010507 | 63 | 273 | 2.0 | 4.0 | 0.00 | 0.00 | 0.00 | 69 | 1015.3 |
| 20260506010019 | 64 | 265 | 2.0 | 4.0 | 0.00 | 0.00 | 0.00 | 68 | 1015.3 |
| 20260506005509 | 63 | 290 | 1.0 | 4.0 | 0.00 | 0.00 | 0.00 | 71 | 1015.2 |
| 20260506005007 | 62 | 281 | 2.0 | 4.0 | 0.00 | 0.00 | 0.00 | 71 | 1015.2 |
| 20260506004506 | 62 | 247 | 2.0 | 6.0 | 0.00 | 0.00 | 0.00 | 71 | 1015.2 |
| 20260506004004 | 62 | 288 | 3.0 | 6.0 | 0.00 | 0.00 | 0.00 | 70 | 1015.2 |
| 20260506003504 | 62 | 279 | 2.0 | 6.0 | 0.00 | 0.00 | 0.00 | 71 | 1015.2 |
| 20260506003008 | 62 | 243 | 3.0 | 7.0 | 0.00 | 0.00 | 0.00 | 71 | 1015.2 |
| 20260506002506 | 62 | 291 | 3.0 | 7.0 | 0.00 | 0.00 | 0.00 | 73 | 1015.3 |
| 20260506002005 | 62 | 272 | 2.0 | 7.0 | 0.00 | 0.00 | 0.00 | 72 | 1015.3 |
| 20260506001512 | 62 | 281 | 3.0 | 7.0 | 0.00 | 0.00 | 0.00 | 71 | 1015.4 |
| 20260506001006 | 62 | 281 | 3.0 | 7.0 | 0.00 | 0.00 | 0.00 | 72 | 1015.3 |
| 20260506000508 | 62 | 287 | 2.0 | 7.0 | 0.00 | 0.00 | 0.00 | 72 | 1015.4 |
| 20260506000016 | 62 | 286 | 3.0 | 8.0 | 0.00 | 0.00 | 0.00 | 72 | 1015.4 |
| 20260505235507 | 61 | 266 | 3.0 | 8.0 | 0.00 | 0.00 | 0.00 | 73 | 1015.4 |
| 20260505235010 | 62 | 272 | 5.0 | 8.0 | 0.00 | 0.00 | 0.00 | 70 | 1015.4 |
| 20260505234522 | 62 | 337 | 3.0 | 7.0 | 0.00 | 0.00 | 0.00 | 72 | 1015.6 |
| 20260505234013 | 61 | 275 | 3.0 | 7.0 | 0.00 | 0.00 | 0.00 | 73 | 1015.7 |
| 20260505233503 | 61 | 271 | 4.0 | 7.0 | 0.00 | 0.00 | 0.00 | 72 | 1015.8 |
| 20260505233006 | 61 | 260 | 3.0 | 7.0 | 0.00 | 0.00 | 0.00 | 74 | 1015.8 |
| 20260505232507 | 61 | 286 | 4.0 | 7.0 | 0.00 | 0.00 | 0.00 | 73 | 1015.9 |
| 20260505232006 | 61 | 269 | 4.0 | 8.0 | 0.00 | 0.00 | 0.00 | 73 | 1015.9 |
| 20260505231510 | 61 | 276 | 3.0 | 9.0 | 0.00 | 0.00 | 0.00 | 75 | 1015.9 |
| 20260505231008 | 61 | 255 | 5.0 | 9.0 | 0.00 | 0.00 | 0.00 | 72 | 1015.9 |
| 20260505230505 | 61 | 276 | 3.0 | 8.0 | 0.00 | 0.00 | 0.00 | 73 | 1016.0 |
| 20260505230018 | 60 | 260 | 3.0 | 8.0 | 0.00 | 0.00 | 0.00 | 77 | 1016.1 |
| 20260505225508 | 60 | 276 | 4.0 | 7.0 | 0.00 | 0.00 | 0.00 | 76 | 1016.1 |
| 20260505225009 | 60 | 281 | 4.0 | 7.0 | 0.00 | 0.00 | 0.00 | 75 | 1016.1 |
| 20260505224520 | 61 | 273 | 3.0 | 9.0 | 0.00 | 0.00 | 0.00 | 73 | 1016.2 |
| 20260505224010 | 60 | 275 | 4.0 | 9.0 | 0.00 | 0.00 | 0.00 | 75 | 1016.2 |
| 20260505223512 | 60 | 270 | 5.0 | 8.0 | 0.00 | 0.00 | 0.00 | 75 | 1016.2 |
| 20260505223027 | 60 | 273 | 4.0 | 7.0 | 0.00 | 0.00 | 0.00 | 77 | 1016.3 |
| 20260505222504 | 60 | 254 | 4.0 | 7.0 | 0.00 | 0.00 | 0.00 | 77 | 1016.3 |
| 20260505222005 | 59 | 273 | 3.0 | 6.0 | 0.00 | 0.00 | 0.00 | 76 | 1016.3 |
| 20260505221508 | 59 | 259 | 3.0 | 8.0 | 0.00 | 0.00 | 0.00 | 76 | 1016.4 |
| 20260505221004 | 59 | 283 | 4.0 | 8.0 | 0.00 | 0.00 | 0.00 | 76 | 1016.4 |
| 20260505220507 | 59 | 243 | 2.0 | 7.0 | 0.00 | 0.00 | 0.00 | 77 | 1016.5 |
| 20260505220014 | 59 | 285 | 3.0 | 7.0 | 0.00 | 0.00 | 0.00 | 76 | 1016.5 |
| 20260505215506 | 59 | 280 | 2.0 | 7.0 | 0.00 | 0.00 | 0.00 | 77 | 1016.5 |
| 20260505215006 | 59 | 279 | 3.0 | 9.0 | 0.00 | 0.00 | 0.00 | 77 | 1016.5 |
| 20260505214524 | 58 | 267 | 4.0 | 9.0 | 0.00 | 0.00 | 0.00 | 78 | 1016.6 |
| 20260505214008 | 58 | 277 | 2.0 | 7.0 | 0.00 | 0.00 | 0.00 | 78 | 1016.6 |
| 20260505213507 | 59 | 263 | 3.0 | 8.0 | 0.00 | 0.00 | 0.00 | 78 | 1016.7 |
| 20260505213024 | 58 | 278 | 4.0 | 8.0 | 0.00 | 0.00 | 0.00 | 79 | 1016.7 |
| 20260505212510 | 58 | 261 | 5.0 | 7.0 | 0.00 | 0.00 | 0.00 | 78 | 1016.6 |
| 20260505212011 | 59 | 295 | 3.0 | 7.0 | 0.00 | 0.00 | 0.00 | 78 | 1016.7 |
| 20260505211508 | 58 | 256 | 4.0 | 9.0 | 0.00 | 0.00 | 0.00 | 78 | 1016.7 |
| 20260505211004 | 58 | 279 | 3.0 | 9.0 | 0.00 | 0.00 | 0.00 | 78 | 1016.7 |
| 20260505210508 | 58 | 271 | 4.0 | 9.0 | 0.00 | 0.00 | 0.00 | 78 | 1016.7 |
| 20260505210012 | 59 | 260 | 4.0 | 8.0 | 0.00 | 0.00 | 0.00 | 77 | 1016.7 |
| 20260505205505 | 59 | 264 | 3.0 | 7.0 | 0.00 | 0.00 | 0.00 | 77 | 1016.7 |
| 20260505205007 | 59 | 261 | 2.0 | 6.0 | 0.00 | 0.00 | 0.00 | 78 | 1016.8 |
| 20260505204517 | 58 | 239 | 2.0 | 6.0 | 0.00 | 0.00 | 0.00 | 79 | 1016.8 |
| 20260505204009 | 58 | 266 | 3.0 | 8.0 | 0.00 | 0.00 | 0.00 | 79 | 1016.8 |
| 20260505203515 | 58 | 267 | 4.0 | 8.0 | 0.00 | 0.00 | 0.00 | 78 | 1016.8 |
| 20260505203022 | 58 | 273 | 4.0 | 8.0 | 0.00 | 0.00 | 0.00 | 79 | 1016.8 |
| 20260505202508 | 58 | 259 | 4.0 | 8.0 | 0.00 | 0.00 | 0.00 | 79 | 1016.8 |
| 20260505202011 | 58 | 266 | 3.0 | 8.0 | 0.00 | 0.00 | 0.00 | 80 | 1016.8 |
| 20260505201524 | 57 | 240 | 2.0 | 8.0 | 0.00 | 0.00 | 0.00 | 79 | 1016.8 |
| 20260505201012 | 57 | 272 | 4.0 | 7.0 | 0.00 | 0.00 | 0.00 | 80 | 1016.8 |
| 20260505200505 | 57 | 263 | 3.0 | 7.0 | 0.00 | 0.00 | 0.00 | 80 | 1016.7 |
| 20260505200008 | 57 | 273 | 3.0 | 8.0 | 0.00 | 0.00 | 0.00 | 79 | 1016.8 |
| 20260505195505 | 58 | 277 | 3.0 | 8.0 | 0.00 | 0.00 | 0.00 | 79 | 1016.7 |
| 20260505195006 | 57 | 273 | 4.0 | 7.0 | 0.00 | 0.00 | 0.00 | 79 | 1016.8 |
| 20260505194516 | 57 | 267 | 2.0 | 7.0 | 0.00 | 0.00 | 0.00 | 79 | 1016.8 |
| 20260505194009 | 58 | 227 | 2.0 | 6.0 | 0.00 | 0.00 | 0.00 | 79 | 1016.8 |
| 20260505193511 | 58 | 273 | 2.0 | 6.0 | 0.00 | 0.00 | 0.00 | 79 | 1016.8 |
| 20260505193018 | 57 | 295 | 1.0 | 7.0 | 0.00 | 0.00 | 0.00 | 81 | 1016.8 |
| 20260505192516 | 57 | 268 | 3.0 | 7.0 | 0.00 | 0.00 | 0.00 | 80 | 1016.7 |
| 20260505192009 | 57 | 281 | 2.0 | 6.0 | 0.00 | 0.00 | 0.00 | 81 | 1016.7 |
| 20260505191526 | 57 | 265 | 2.0 | 6.0 | 0.00 | 0.00 | 0.00 | 80 | 1016.7 |
| 20260505191007 | 57 | 283 | 2.0 | 7.0 | 0.00 | 0.00 | 0.00 | 80 | 1016.7 |
| 20260505190506 | 57 | 267 | 2.0 | 7.0 | 0.00 | 0.00 | 0.00 | 81 | 1016.7 |
| 20260505190029 | 57 | 269 | 3.0 | 7.0 | 0.00 | 0.00 | 0.00 | 81 | 1016.7 |
| 20260505185507 | 57 | 280 | 3.0 | 7.0 | 0.00 | 0.00 | 0.00 | 81 | 1016.7 |
| 20260505185010 | 57 | 275 | 3.0 | 7.0 | 0.00 | 0.00 | 0.00 | 81 | 1016.7 |
| 20260505184514 | 56 | 254 | 2.0 | 7.0 | 0.00 | 0.00 | 0.00 | 81 | 1016.7 |
| 20260505184006 | 56 | 245 | 2.0 | 7.0 | 0.00 | 0.00 | 0.00 | 82 | 1016.8 |
| 20260505183507 | 57 | 272 | 1.0 | 4.0 | 0.00 | 0.00 | 0.00 | 81 | 1016.8 |
| 20260505183027 | 57 | 261 | 2.0 | 4.0 | 0.00 | 0.00 | 0.00 | 81 | 1016.7 |
| 20260505182516 | 56 | 271 | 1.0 | 4.0 | 0.00 | 0.00 | 0.00 | 82 | 1016.7 |
| 20260505182014 | 56 | 242 | 2.0 | 6.0 | 0.00 | 0.00 | 0.00 | 82 | 1016.7 |
| 20260505181524 | 56 | 256 | 2.0 | 7.0 | 0.00 | 0.00 | 0.00 | 81 | 1016.7 |
| 20260505181009 | 56 | 263 | 3.0 | 7.0 | 0.00 | 0.00 | 0.00 | 81 | 1016.6 |
| 20260505180508 | 56 | 234 | 2.0 | 6.0 | 0.00 | 0.00 | 0.00 | 81 | 1016.7 |
| 20260505180026 | 56 | 231 | 3.0 | 6.0 | 0.00 | 0.00 | 0.00 | 80 | 1016.7 |
| 20260505175511 | 56 | 225 | 3.0 | 6.0 | 0.00 | 0.00 | 0.00 | 81 | 1016.6 |
| 20260505175012 | 56 | 240 | 4.0 | 6.0 | 0.00 | 0.00 | 0.00 | 80 | 1016.6 |
| 20260505174512 | 56 | 263 | 3.0 | 6.0 | 0.00 | 0.00 | 0.00 | 81 | 1016.6 |
| 20260505174006 | 56 | 257 | 3.0 | 6.0 | 0.00 | 0.00 | 0.00 | 81 | 1016.6 |
| 20260505173509 | 56 | 240 | 3.0 | 7.0 | 0.00 | 0.00 | 0.00 | 81 | 1016.6 |
| 20260505173017 | 56 | 228 | 3.0 | 7.0 | 0.00 | 0.00 | 0.00 | 81 | 1016.5 |
| 20260505172505 | 56 | 275 | 2.0 | 5.0 | 0.00 | 0.00 | 0.00 | 82 | 1016.5 |
| 20260505172009 | 55 | 270 | 2.0 | 5.0 | 0.00 | 0.00 | 0.00 | 82 | 1016.5 |
| 20260505171521 | 55 | 281 | 2.0 | 3.0 | 0.00 | 0.00 | 0.00 | 82 | 1016.5 |
| 20260505171009 | 55 | 274 | 2.0 | 3.0 | 0.00 | 0.00 | 0.00 | 82 | 1016.4 |
| 20260505170509 | 55 | 283 | 2.0 | 4.0 | 0.00 | 0.00 | 0.00 | 83 | 1016.3 |
| 20260505170028 | 55 | 273 | 2.0 | 4.0 | 0.00 | 0.00 | 0.00 | 83 | 1016.4 |
| 20260505165509 | 55 | 267 | 2.0 | 4.0 | 0.00 | 0.00 | 0.00 | 83 | 1016.4 |
| 20260505165008 | 55 | 217 | 1.0 | 4.0 | 0.00 | 0.00 | 0.00 | 83 | 1016.3 |
| 20260505164526 | 55 | 274 | 2.0 | 4.0 | 0.00 | 0.00 | 0.00 | 83 | 1016.3 |
| 20260505164014 | 55 | 271 | 2.0 | 4.0 | 0.00 | 0.00 | 0.00 | 82 | 1016.3 |
| 20260505163507 | 55 | 239 | 2.0 | 4.0 | 0.00 | 0.00 | 0.00 | 82 | 1016.3 |
| 20260505163017 | 55 | 237 | 2.0 | 4.0 | 0.00 | 0.00 | 0.00 | 83 | 1016.2 |
| 20260505162505 | 55 | 227 | 2.0 | 4.0 | 0.00 | 0.00 | 0.00 | 83 | 1016.2 |
| 20260505162007 | 55 | 253 | 1.0 | 3.0 | 0.00 | 0.00 | 0.00 | 83 | 1016.2 |
| 20260505161519 | 55 | 254 | 2.0 | 4.0 | 0.00 | 0.00 | 0.00 | 82 | 1016.2 |
| 20260505161007 | 55 | 254 | 2.0 | 4.0 | 0.00 | 0.00 | 0.00 | 82 | 1016.1 |
| 20260505160514 | 55 | 252 | 1.0 | 3.0 | 0.00 | 0.00 | 0.00 | 83 | 1016.1 |
| 20260505153026 | 55 | 208 | 2.0 | 5.0 | 0.00 | 0.00 | 0.00 | 83 | 1015.8 |
| 20260505152509 | 55 | 256 | 1.0 | 5.0 | 0.00 | 0.00 | 0.00 | 83 | 1015.8 |
| 20260505152016 | 55 | 259 | 2.0 | 5.0 | 0.00 | 0.00 | 0.00 | 82 | 1015.8 |
| 20260505151518 | 55 | 250 | 2.0 | 4.0 | 0.00 | 0.00 | 0.00 | 82 | 1015.8 |
| 20260505151012 | 55 | 227 | 2.0 | 5.0 | 0.00 | 0.00 | 0.00 | 82 | 1015.6 |
| 20260505150516 | 55 | 259 | 2.0 | 5.0 | 0.00 | 0.00 | 0.00 | 82 | 1015.6 |
| 20260505140507 | 54 | 244 | 4.0 | 8.0 | 0.00 | 0.00 | 0.00 | 82 | 1015.2 |
| 20260505125004 | 54 | 256 | 2.0 | 7.0 | 0.00 | 0.00 | 0.00 | 84 | 1014.3 |
| 20260505124501 | 54 | 177 | 3.0 | 6.0 | 0.00 | 0.01 | 0.00 | 84 | 1014.3 |
| 20260505124005 | 54 | 211 | 1.0 | 7.0 | 0.00 | 0.01 | 0.00 | 84 | 1014.3 |
| 20260505123504 | 54 | 246 | 3.0 | 7.0 | 0.00 | 0.01 | 0.00 | 84 | 1014.3 |
| 20260505123007 | 54 | 235 | 3.0 | 7.0 | 0.00 | 0.01 | 0.00 | 84 | 1014.3 |
| 20260505122508 | 54 | 222 | 3.0 | 7.0 | 0.00 | 0.01 | 0.00 | 84 | 1014.2 |
| 20260505122004 | 54 | 240 | 3.0 | 6.0 | 0.00 | 0.01 | 0.00 | 83 | 1014.2 |
| 20260505121514 | 54 | 238 | 3.0 | 6.0 | 0.00 | 0.01 | 0.00 | 83 | 1014.2 |
| 20260505121007 | 54 | 233 | 4.0 | 6.0 | 0.00 | 0.01 | 0.00 | 83 | 1014.1 |
| 20260505120511 | 54 | 229 | 2.0 | 6.0 | 0.00 | 0.01 | 0.00 | 83 | 1014.1 |
| 20260505120030 | 54 | 226 | 3.0 | 6.0 | 0.00 | 0.01 | 0.00 | 83 | 1014.1 |
| 20260505115508 | 54 | 232 | 3.0 | 6.0 | 0.00 | 0.01 | 0.00 | 83 | 1014.1 |
| 20260505115010 | 54 | 236 | 3.0 | 7.0 | 0.00 | 0.01 | 0.00 | 83 | 1014.1 |
| 20260505114523 | 54 | 173 | 3.0 | 8.0 | 0.00 | 0.01 | 0.00 | 83 | 1014.1 |
| 20260505114007 | 54 | 230 | 5.0 | 8.0 | 0.00 | 0.01 | 0.00 | 83 | 1014.1 |
| 20260505113503 | 54 | 252 | 4.0 | 9.0 | 0.00 | 0.01 | 0.00 | 83 | 1014.0 |
| 20260505113006 | 54 | 221 | 3.0 | 9.0 | 0.00 | 0.01 | 0.00 | 83 | 1014.1 |
| 20260505112504 | 54 | 223 | 4.0 | 7.0 | 0.00 | 0.01 | 0.00 | 83 | 1014.1 |
| 20260505112009 | 54 | 242 | 3.0 | 8.0 | 0.00 | 0.01 | 0.00 | 83 | 1014.1 |
| 20260505111515 | 54 | 223 | 3.0 | 10.0 | 0.00 | 0.01 | 0.00 | 83 | 1014.0 |
| 20260505111005 | 54 | 212 | 4.0 | 11.0 | 0.00 | 0.01 | 0.00 | 83 | 1014.0 |
| 20260505110505 | 54 | 249 | 7.0 | 11.0 | 0.00 | 0.01 | 0.00 | 83 | 1014.1 |
| 20260505102004 | 54 | 235 | 4.0 | 9.0 | 0.00 | 0.01 | 0.00 | 84 | 1013.8 |
| 20260505101511 | 54 | 240 | 5.0 | 10.0 | 0.00 | 0.01 | 0.00 | 84 | 1013.8 |
| 20260505101010 | 54 | 218 | 5.0 | 10.0 | 0.00 | 0.01 | 0.00 | 84 | 1013.8 |
| 20260505100506 | 54 | 242 | 4.0 | 9.0 | 0.00 | 0.01 | 0.00 | 84 | 1013.7 |
| 20260505100014 | 54 | 240 | 5.0 | 9.0 | 0.00 | 0.01 | 0.00 | 84 | 1013.7 |
| 20260505095505 | 54 | 262 | 4.0 | 9.0 | 0.00 | 0.01 | 0.00 | 84 | 1013.7 |
| 20260505095006 | 54 | 258 | 5.0 | 8.0 | 0.00 | 0.01 | 0.00 | 84 | 1013.7 |
| 20260505094521 | 54 | 247 | 4.0 | 8.0 | 0.00 | 0.01 | 0.00 | 84 | 1013.7 |
| 20260505094011 | 54 | 217 | 4.0 | 9.0 | 0.00 | 0.01 | 0.00 | 84 | 1013.7 |
| 20260505093510 | 54 | 221 | 5.0 | 9.0 | 0.00 | 0.01 | 0.00 | 84 | 1013.6 |
| 20260505093023 | 54 | 221 | 6.0 | 12.0 | 0.00 | 0.01 | 0.00 | 84 | 1013.6 |
| 20260505092513 | 54 | 217 | 7.0 | 12.0 | 0.00 | 0.01 | 0.00 | 84 | 1013.5 |
| 20260505092005 | 54 | 262 | 5.0 | 12.0 | 0.00 | 0.01 | 0.00 | 84 | 1013.5 |
| 20260505091507 | 54 | 223 | 5.0 | 10.0 | 0.00 | 0.01 | 0.00 | 84 | 1013.5 |
| 20260505091005 | 54 | 207 | 6.0 | 10.0 | 0.00 | 0.01 | 0.00 | 84 | 1013.5 |
| 20260505090505 | 54 | 227 | 5.0 | 11.0 | 0.00 | 0.01 | 0.00 | 84 | 1013.5 |
| 20260505090017 | 54 | 264 | 8.0 | 11.0 | 0.00 | 0.01 | 0.00 | 84 | 1013.4 |
| 20260505085506 | 54 | 236 | 6.0 | 10.0 | 0.00 | 0.01 | 0.00 | 84 | 1013.3 |
| 20260505085007 | 54 | 209 | 4.0 | 9.0 | 0.00 | 0.01 | 0.00 | 84 | 1013.3 |
| 20260505084516 | 54 | 211 | 4.0 | 10.0 | 0.00 | 0.01 | 0.00 | 84 | 1013.2 |
| 20260505084011 | 54 | 244 | 6.0 | 10.0 | 0.00 | 0.01 | 0.00 | 84 | 1013.4 |
| 20260505083512 | 54 | 261 | 4.0 | 10.0 | 0.00 | 0.01 | 0.00 | 84 | 1013.2 |
| 20260505083022 | 54 | 224 | 5.0 | 12.0 | 0.00 | 0.01 | 0.00 | 84 | 1013.2 |
| 20260505082513 | 54 | 227 | 5.0 | 12.0 | 0.00 | 0.01 | 0.00 | 84 | 1013.2 |
| 20260505082010 | 54 | 246 | 6.0 | 10.0 | 0.00 | 0.01 | 0.00 | 84 | 1013.3 |
| 20260505081522 | 54 | 257 | 6.0 | 12.0 | 0.00 | 0.01 | 0.00 | 84 | 1013.2 |
| 20260505081007 | 54 | 186 | 5.0 | 12.0 | 0.00 | 0.01 | 0.00 | 85 | 1013.3 |
| 20260505080506 | 54 | 213 | 4.0 | 9.0 | 0.00 | 0.01 | 0.00 | 85 | 1013.3 |
| 20260505080006 | 54 | 244 | 3.0 | 9.0 | 0.00 | 0.01 | 0.00 | 85 | 1013.2 |
| 20260505075509 | 54 | 215 | 5.0 | 9.0 | 0.00 | 0.01 | 0.00 | 85 | 1013.2 |
| 20260505075012 | 54 | 218 | 5.0 | 8.0 | 0.00 | 0.01 | 0.00 | 85 | 1013.1 |
| 20260505074512 | 54 | 222 | 3.0 | 10.0 | 0.00 | 0.01 | 0.00 | 85 | 1013.1 |
| 20260505074008 | 54 | 232 | 5.0 | 10.0 | 0.00 | 0.01 | 0.00 | 85 | 1013.0 |
| 20260505073511 | 54 | 219 | 4.0 | 8.0 | 0.00 | 0.01 | 0.00 | 85 | 1013.0 |
| 20260505073020 | 54 | 244 | 5.0 | 11.0 | 0.00 | 0.01 | 0.00 | 85 | 1012.8 |
| 20260505072505 | 54 | 267 | 5.0 | 11.0 | 0.00 | 0.01 | 0.00 | 84 | 1012.6 |
| 20260505072008 | 54 | 259 | 7.0 | 11.0 | 0.00 | 0.01 | 0.00 | 85 | 1012.5 |
| 20260505071530 | 54 | 225 | 4.0 | 10.0 | 0.00 | 0.01 | 0.00 | 84 | 1012.5 |